Flag for Brazil Weather past 2 weeks in Pirassununga, São Paulo, Brazil

Now
64 °F

Clear.


Feels Like: 64 °F
Forecast: 62 / 84 °F
Wind: 2 mph from Southeast

Location: Pirassununga Airport

Current Time: May 24, 2015 at 11:17:35 PM

Latest Report: May 24, 2015 at 10:00 PM


Visibility: 10 mi

Pressure: 30.09 "Hg

Humidity: 94%

Dew point: 63 °F

Location of PirassunungaLocation

Historic Weather in Pirassununga — Graph

°F

Pirassununga temperature yesterday

Maximum temperature yesterday: 81 °F (at 1:00 PM)
Minimum temperature yesterday: 55 °F (at 6:00 AM)
Average temperature yesterday: 69 °F

Past Weeks' High & Low Weather Summary

 TemperatureHumidityPressure
High84 °F (May 10, 2:00 PM)100% (May 10, 7:00 AM)30.30 "Hg (May 10, 7:00 AM)
Low50 °F (May 16, 7:00 AM)44% (May 16, 3:00 PM)29.89 "Hg (May 10, 4:00 PM)
Average69 °F78%30.15 "Hg
* Reported May 9 10:00 PM — May 24 10:00 PM, Pirassununga, Weather by CustomWeather, © 2015

Note: Actual official high and low records may vary slightly from our data, if they occured in-between our weather recording intervals... More about our weather records

Advertising

Pirassununga weather history for previous 24 hours

 ConditionsComfort  
Time TempWeatherWind HumidityBarometerVisibility
10:00 PM
Sun, May 24
64 °FClear.2 mph94%30.09 "Hg10 mi
9:00 PM64 °FClear.2 mph94%30.09 "Hg10 mi
8:00 PM68 °FClear.2 mph88%30.07 "Hg10 mi
7:00 PM70 °FClear.No wind83%30.07 "Hg10 mi
6:00 PM75 °FClear.No wind69%30.07 "Hg10 mi
5:00 PM81 °FClear.3 mph58%30.07 "Hg10 mi
4:00 PM84 °FPassing clouds.7 mph48%30.04 "HgN/A
3:00 PM84 °FPassing clouds.5 mph51%30.04 "HgN/A
2:00 PM84 °FPassing clouds.9 mph51%30.07 "HgN/A
1:00 PM82 °FSunny.10 mph55%30.09 "Hg10 mi
12:00 PM81 °FSunny.8 mph58%30.12 "Hg10 mi
11:00 AM79 °FSunny.6 mph61%30.12 "Hg10 mi
10:00 AM75 °FSunny.5 mph69%30.15 "Hg10 mi
9:00 AM68 °FSunny.No wind83%30.15 "Hg10 mi
8:00 AM61 °FFog.No wind100%30.12 "Hg3 mi
7:00 AM54 °FFog.No wind100%30.09 "Hg1 mi
6:00 AM55 °FFog.No wind100%30.09 "Hg1 mi
11:00 PM
Sat, May 23
63 °FClear.No wind94%30.12 "Hg10 mi
Weather by CustomWeather, © 2015

See weather overviewHow to use our weather pages